GW3681 Weather Reports


time (UTC)temp
F
wind
direction
speed
knots
gust
knots
rain 1hr
in
rain 24hr
in
rain mn
in
humidity
%
barometer
mb
20260508141604 66 187 1.7 6.1 0.00 0.00 0.00 62 1010.2
20260508141103 67 214 2.6 6.1 0.00 0.00 0.00 62 1010.2
20260508140104 67 162 4.3 6.1 0.00 0.00 0.00 62 1010.2
20260508135604 66 191 2.6 6.1 0.00 0.00 0.00 63 1010.5
20260508134604 66 195 2.6 5.2 0.00 0.00 0.00 60 1010.5
20260508134104 67 204 4.3 5.2 0.00 0.00 0.00 60 1010.2
20260508133604 66 179 1.7 6.1 0.00 0.00 0.00 61 1010.5
20260508133103 67 209 2.6 6.1 0.00 0.00 0.00 62 1010.5
20260508132604 67 233 1.7 6.1 0.00 0.00 0.00 62 1010.5
20260508132104 67 197 2.6 6.1 0.00 0.00 0.00 62 1010.5
20260508131604 66 217 1.7 6.1 0.00 0.00 0.00 62 1010.8
20260508131104 66 213 2.6 6.1 0.00 0.00 0.00 63 1010.8
20260508130104 66 215 2.6 6.1 0.00 0.00 0.00 62 1010.8
20260508125604 67 202 2.6 6.1 0.00 0.00 0.00 62 1010.8
20260508125104 67 184 2.6 5.2 0.00 0.00 0.00 62 1010.8
20260508124604 67 200 2.6 5.2 0.00 0.00 0.00 62 1010.8
20260508123603 67 194 1.7 5.2 0.00 0.00 0.00 62 1011.2
20260508123104 66 210 2.6 5.2 0.00 0.00 0.00 63 1011.0
20260508122104 67 195 3.5 6.1 0.00 0.00 0.00 61 1011.2
20260508121603 67 227 2.6 5.2 0.00 0.00 0.00 62 1011.2
20260508120603 67 273 1.7 5.2 0.00 0.00 0.00 63 1011.2
20260508120105 67 218 1.7 5.2 0.00 0.00 0.00 62 1011.2
20260508115604 66 199 2.6 6.1 0.00 0.00 0.00 63 1011.2
20260508115104 65 235 2.6 6.1 0.00 0.00 0.00 63 1011.2
20260508114604 65 220 2.6 5.2 0.00 0.00 0.00 62 1011.2
20260508114103 66 94 2.6 5.2 0.00 0.00 0.00 63 1011.5
20260508113604 66 187 1.7 5.2 0.00 0.00 0.00 63 1011.5
20260508113104 66 203 2.6 5.2 0.00 0.00 0.00 63 1011.2
20260508112604 66 217 3.5 5.2 0.00 0.00 0.00 62 1011.5
20260508112104 65 212 1.7 5.2 0.00 0.00 0.00 63 1011.5
20260508111604 65 198 2.6 5.2 0.00 0.00 0.00 64 1011.5
20260508111103 65 189 2.6 4.3 0.00 0.00 0.00 63 1011.9
20260508110104 65 198 1.7 4.3 0.00 0.00 0.00 62 1011.5
20260508105103 64 123 1.7 6.1 0.00 0.00 0.00 63 1011.5
20260508104604 65 186 2.6 5.2 0.00 0.00 0.00 61 1011.5
20260508104104 65 218 0.9 2.6 0.00 0.00 0.00 61 1011.2
20260508103603 65 229 1.7 4.3 0.00 0.00 0.00 62 1011.5
20260508103103 64 187 2.6 4.3 0.00 0.00 0.00 61 1011.5
20260508102604 64 242 0.9 4.3 0.00 0.00 0.00 61 1011.5
20260508102104 64 246 1.7 4.3 0.00 0.00 0.00 61 1011.2
20260508101604 65 221 1.7 4.3 0.00 0.00 0.00 60 1011.2
20260508101104 64 194 2.6 4.3 0.00 0.00 0.00 59 1011.2
20260508100604 64 206 0.9 2.6 0.00 0.00 0.00 60 1011.5
20260508100104 64 202 0.0 1.7 0.00 0.00 0.00 60 1011.5
20260508095603 64 257 0.0 2.6 0.00 0.00 0.00 60 1011.2
20260508095103 64 251 1.7 2.6 0.00 0.00 0.00 61 1011.5
20260508094604 64 350 0.0 2.6 0.00 0.00 0.00 60 1011.5
20260508094104 64 255 0.9 4.3 0.00 0.00 0.00 61 1011.5
20260508093603 63 139 2.6 4.3 0.00 0.00 0.00 61 1011.5
20260508093104 64 200 0.9 2.6 0.00 0.00 0.00 60 1011.5
20260508092604 63 184 0.0 1.7 0.00 0.00 0.00 61 1011.5
20260508092103 64 190 0.0 2.6 0.00 0.00 0.00 61 1011.5
20260508091604 64 28 0.0 2.6 0.00 0.00 0.00 61 1011.9
20260508091105 63 252 0.9 4.3 0.00 0.00 0.00 61 1011.5
20260508090604 63 2 0.0 4.3 0.00 0.00 0.00 64 1011.9
20260508090104 63 226 0.9 2.6 0.00 0.00 0.00 64 1011.9
20260508085604 62 201 0.9 2.6 0.00 0.00 0.00 64 1011.9
20260508085104 63 215 1.7 2.6 0.00 0.00 0.00 65 1011.9
20260508084604 62 227 0.9 2.6 0.00 0.00 0.00 65 1011.9
20260508084104 63 204 0.9 2.6 0.00 0.00 0.00 63 1011.5
20260508083603 63 198 1.7 1.7 0.00 0.00 0.00 63 1011.5
20260508082605 63 188 0.0 0.9 0.00 0.00 0.00 62 1011.2
20260508081604 62 215 0.0 0.9 0.00 0.00 0.00 64 1011.5
20260508081103 62 321 0.0 0.9 0.00 0.00 0.00 65 1011.5
20260508080603 62 238 0.0 0.9 0.00 0.00 0.00 64 1011.5
20260508080104 61 198 0.0 0.9 0.00 0.00 0.00 65 1011.5
20260508075604 62 217 0.0 0.0 0.00 0.00 0.00 65 1011.5
20260508075104 61 50 0.0 0.0 0.00 0.00 0.00 65 1011.5
20260508074604 61 279 0.0 0.0 0.00 0.00 0.00 65 1011.2
20260508074104 61 210 0.0 0.0 0.00 0.00 0.00 66 1011.2
20260508073604 61 340 0.0 0.0 0.00 0.00 0.00 66 1011.5
20260508073104 60 303 0.0 0.9 0.00 0.00 0.00 66 1011.2
20260508072604 60 271 0.0 0.9 0.00 0.00 0.00 66 1011.5
20260508071604 59 346 0.0 0.0 0.00 0.00 0.00 68 1011.2
20260508071104 58 336 0.0 0.0 0.00 0.00 0.00 71 1011.2
20260508070604 57 353 0.0 0.0 0.00 0.00 0.00 73 1011.2
20260508070104 56 343 0.0 0.0 0.00 0.00 0.00 74 1010.8
20260508065603 56 349 0.0 0.0 0.00 0.00 0.00 75 1011.2
20260508065104 55 349 0.0 0.0 0.00 0.00 0.00 75 1010.5
20260508064604 55 351 0.0 0.0 0.00 0.00 0.00 75 1010.5
20260508064104 54 350 0.0 0.0 0.00 0.00 0.00 75 1010.5
20260508063604 54 354 0.0 0.0 0.00 0.00 0.00 76 1010.5
20260508063104 53 357 0.0 0.0 0.00 0.00 0.00 76 1010.8
20260508062604 53 351 0.0 0.0 0.00 0.00 0.00 76 1010.6
20260508062104 53 352 0.0 0.0 0.00 0.00 0.00 76 1010.5
20260508061604 53 354 0.0 0.0 0.00 0.00 0.00 75 1010.5
20260508061104 53 356 0.0 0.0 0.00 0.00 0.00 75 1010.3
20260508060603 53 356 0.0 0.0 0.00 0.00 0.00 75 1010.3
20260508060103 53 354 0.0 0.0 0.00 0.00 0.00 75 1010.3
20260508055104 53 350 0.0 0.0 0.00 0.00 0.00 74 1010.5
20260508054604 54 350 0.0 0.0 0.00 0.00 0.00 73 1010.5
20260508054104 54 350 0.0 0.0 0.00 0.00 0.00 72 1010.5
20260508053603 54 352 0.0 0.0 0.00 0.00 0.00 72 1010.5
20260508053103 55 347 0.0 0.0 0.00 0.00 0.00 71 1010.5
20260508052604 55 350 0.0 0.0 0.00 0.00 0.00 70 1010.2
20260508052104 56 355 0.0 0.0 0.00 0.00 0.00 70 1010.2
20260508051603 56 351 0.0 0.0 0.00 0.00 0.00 70 1010.2
20260508050604 56 343 0.0 0.9 0.00 0.00 0.00 70 1010.2
20260508050105 56 346 0.0 0.0 0.00 0.00 0.00 70 1010.2
20260508045603 56 344 0.0 0.0 0.00 0.00 0.00 69 1010.2
20260508045104 56 347 0.0 2.6 0.00 0.00 0.00 69 1009.8
20260508044604 56 338 0.0 2.6 0.00 0.00 0.00 68 1010.2
20260508043604 56 338 0.0 0.9 0.00 0.00 0.00 67 1010.2
20260508042604 56 339 0.0 0.9 0.00 0.00 0.00 67 1010.2
20260508042104 56 341 0.0 0.0 0.00 0.00 0.00 68 1009.8
20260508041604 56 337 0.0 0.9 0.00 0.00 0.00 68 1009.8
20260508041104 56 317 0.0 0.9 0.00 0.00 0.00 69 1009.8
20260508040604 56 347 0.0 0.0 0.00 0.00 0.00 68 1009.5
20260508040104 56 347 0.0 0.0 0.00 0.00 0.00 68 1009.8
20260508035104 56 346 0.0 0.0 0.00 0.00 0.00 67 1009.8
20260508034604 56 346 0.0 0.0 0.00 0.00 0.00 67 1009.8
20260508034104 56 344 0.0 0.0 0.00 0.00 0.00 68 1009.5
20260508033104 56 347 0.0 0.0 0.00 0.00 0.00 69 1009.5
20260508032604 56 354 0.0 0.0 0.00 0.00 0.00 70 1009.8
20260508032104 56 346 0.0 0.0 0.00 0.00 0.00 70 1010.2
20260508031603 56 347 0.0 0.0 0.00 0.00 0.00 69 1009.8
20260508031103 56 346 0.0 0.0 0.00 0.00 0.00 69 1009.8
20260508030104 57 349 0.0 0.0 0.00 0.00 0.00 69 1009.5
20260508025604 57 349 0.0 0.0 0.00 0.00 0.00 68 1009.5
20260508025104 57 347 0.0 0.0 0.00 0.00 0.00 68 1009.5
20260508024604 57 348 0.0 0.0 0.00 0.00 0.00 68 1009.5
20260508024104 57 348 0.0 0.9 0.00 0.00 0.00 68 1009.5
20260508022604 57 323 0.0 0.0 0.00 0.00 0.00 67 1009.8
20260508022104 58 349 0.0 1.7 0.00 0.00 0.00 67 1009.5
20260508021603 58 348 0.0 1.7 0.00 0.00 0.00 67 1009.5
20260508021103 58 359 0.0 2.6 0.00 0.00 0.00 66 1009.8
20260508020604 58 354 0.9 2.6 0.00 0.00 0.00 66 1009.8
20260508020104 58 346 0.9 4.3 0.00 0.00 0.00 66 1009.8
20260508015604 58 1 1.7 5.2 0.00 0.00 0.00 66 1009.5
20260508015104 58 347 1.7 5.2 0.00 0.00 0.00 66 1009.5
20260508014604 58 354 1.7 4.3 0.00 0.00 0.00 66 1009.8
20260508014104 58 358 0.9 2.6 0.00 0.00 0.00 66 1009.8
20260508013604 58 324 0.0 2.6 0.00 0.00 0.00 66 1009.5
20260508013104 58 3 0.9 2.6 0.00 0.00 0.00 66 1009.5
20260508012604 59 2 1.7 2.6 0.00 0.00 0.00 65 1009.5
20260508011603 59 6 1.7 2.6 0.00 0.00 0.00 63 1009.8
20260508011103 59 344 0.9 4.3 0.00 0.00 0.00 63 1010.2
20260508010604 59 351 1.7 4.3 0.00 0.00 0.00 62 1010.2
20260508010104 59 338 0.0 4.3 0.00 0.00 0.00 62 1010.2
20260508005104 60 349 1.7 5.2 0.00 0.00 0.00 62 1010.2
20260508004603 60 354 1.7 5.2 0.00 0.00 0.00 62 1010.2
20260508003605 59 336 1.7 4.3 0.00 0.00 0.00 62 1010.2
20260508002603 59 339 1.7 4.3 0.00 0.00 0.00 63 1010.2
20260508001603 59 336 0.0 2.6 0.00 0.00 0.00 63 1010.4
20260508001103 59 343 0.0 1.7 0.00 0.00 0.00 63 1010.2
20260508000104 59 329 0.9 4.3 0.00 0.00 0.00 64 1010.2
20260507235604 59 342 0.0 1.7 0.00 0.00 0.00 63 1010.2
20260507235104 60 339 0.9 2.6 0.00 0.00 0.00 63 1010.2
20260507234604 59 347 1.7 2.6 0.00 0.00 0.00 63 1010.0
20260507234104 59 0 0.9 2.6 0.00 0.00 0.00 63 1009.9
20260507233603 59 332 1.7 4.3 0.00 0.00 0.00 64 1010.2
20260507233103 59 329 0.9 4.3 0.00 0.00 0.00 66 1010.2
20260507232603 59 316 0.9 2.6 0.00 0.00 0.00 67 1010.2
20260507231603 60 339 0.0 0.9 0.00 0.00 0.00 74 1010.5
20260507230604 60 341 0.0 0.0 0.00 0.00 0.00 74 1010.5
20260507230104 59 339 0.0 0.0 0.00 0.00 0.00 74 1010.2
20260507225604 59 352 0.0 0.0 0.00 0.00 0.00 74 1010.5
20260507225104 60 350 0.0 0.0 0.00 0.00 0.00 74 1010.2
20260507224603 60 347 0.0 0.0 0.00 0.00 0.00 74 1010.2
20260507224104 60 351 0.0 0.0 0.00 0.00 0.00 73 1010.5
20260507223104 61 347 0.0 0.0 0.00 0.00 0.00 73 1010.2
20260507221603 61 345 0.0 0.0 0.00 0.00 0.00 72 1010.5
20260507220604 61 340 0.0 0.0 0.00 0.00 0.00 72 1010.5
20260507220104 62 341 0.0 1.7 0.00 0.00 0.00 72 1010.2
20260507215604 62 295 0.0 2.6 0.00 0.00 0.00 71 1010.5
20260507215104 62 217 1.7 2.6 0.00 0.00 0.00 71 1010.5
20260507214604 62 253 0.9 2.6 0.00 0.00 0.00 70 1010.8
20260507214104 62 244 1.7 6.1 0.00 0.00 0.00 69 1010.5
20260507213604 62 216 4.3 6.1 0.00 0.00 0.00 69 1010.8
20260507212603 62 229 2.6 4.3 0.00 0.00 0.00 70 1010.8
20260507212104 62 250 2.6 5.2 0.00 0.00 0.00 70 1010.8
20260507211605 62 287 0.9 7.8 0.00 0.00 0.00 70 1010.8
20260507211104 62 246 2.6 7.8 0.00 0.00 0.00 70 1010.8
20260507210604 62 234 0.9 4.3 0.00 0.00 0.00 70 1010.8
20260507210104 62 351 0.0 6.1 0.00 0.00 0.00 70 1010.8
20260507205604 62 244 2.6 6.1 0.00 0.00 0.00 70 1010.8
20260507205104 62 267 2.6 5.2 0.00 0.00 0.00 70 1010.8
20260507204603 62 262 1.7 5.2 0.00 0.00 0.00 70 1010.5
20260507203604 62 257 1.7 4.3 0.00 0.00 0.00 71 1010.5
20260507202604 62 226 2.6 6.1 0.00 0.00 0.00 72 1010.5
20260507202104 62 251 0.9 5.2 0.00 0.00 0.00 72 1010.5
20260507201603 62 225 2.6 5.2 0.00 0.00 0.00 73 1010.5
20260507201103 62 231 1.7 7.0 0.00 0.00 0.00 73 1010.5
20260507200104 62 240 2.6 7.0 0.00 0.00 0.00 73 1010.5
20260507195604 62 154 4.3 6.1 0.00 0.00 0.00 72 1010.2
20260507195104 62 272 2.6 5.2 0.00 0.00 0.00 72 1010.5
20260507194604 62 236 0.9 4.3 0.00 0.00 0.00 72 1010.5
20260507194104 62 321 0.9 4.3 0.00 0.00 0.00 72 1010.5
20260507193604 62 328 0.0 4.3 0.00 0.00 0.00 72 1010.2
20260507192605 62 142 0.0 1.7 0.00 0.00 0.00 72 1010.5
20260507192104 62 218 1.7 2.6 0.00 0.00 0.00 71 1010.2
20260507191604 62 238 0.9 4.3 0.00 0.00 0.00 71 1010.2
20260507191104 62 248 0.9 4.3 0.00 0.00 0.00 71 1010.5
20260507190604 62 223 0.0 2.6 0.00 0.00 0.00 71 1010.2
20260507190104 62 241 0.9 2.6 0.00 0.00 0.00 71 1010.2
20260507184603 63 223 0.9 4.3 0.00 0.00 0.00 70 1010.2
20260507184104 63 221 2.6 5.2 0.00 0.00 0.00 70 1010.2
20260507183604 63 238 2.6 5.2 0.00 0.00 0.00 70 1010.0
20260507183104 63 262 1.7 5.2 0.00 0.00 0.00 70 1009.8
20260507182104 63 289 0.0 7.0 0.00 0.00 0.00 70 1009.9
20260507181603 63 308 0.9 7.0 0.00 0.00 0.00 70 1010.1
20260507181104 63 206 4.3 7.0 0.00 0.00 0.00 69 1009.8
20260507180104 64 215 1.7 6.1 0.00 0.00 0.00 69 1009.8
20260507175604 64 266 1.7 7.0 0.00 0.00 0.00 68 1009.8
20260507175104 64 299 1.7 8.7 0.00 0.00 0.00 69 1009.8
20260507174604 64 233 2.6 8.7 0.00 0.00 0.00 68 1009.5
20260507174103 64 256 2.6 7.0 0.00 0.00 0.00 68 1009.8
20260507173604 64 232 1.7 7.8 0.00 0.00 0.00 68 1009.5
20260507172604 64 236 2.6 10.4 0.00 0.00 0.00 68 1009.8
20260507172104 64 297 2.6 7.8 0.00 0.00 0.00 68 1009.8
20260507171604 64 229 2.6 7.8 0.00 0.00 0.00 67 1009.8
20260507171104 64 289 2.6 7.8 0.00 0.00 0.00 67 1009.8
20260507170603 65 180 2.6 7.8 0.00 0.00 0.00 66 1009.8
20260507170105 65 262 1.7 7.0 0.00 0.00 0.00 66 1009.5
20260507165603 65 225 1.7 8.7 0.00 0.00 0.00 67 1009.5
20260507165104 66 307 1.7 8.7 0.00 0.00 0.00 66 1009.5
20260507164604 66 223 2.6 6.1 0.00 0.00 0.00 64 1009.5
20260507164103 66 226 0.9 6.1 0.00 0.00 0.00 65 1009.5
20260507163604 66 230 2.6 6.1 0.00 0.00 0.00 65 1009.5
20260507163103 66 212 0.9 6.1 0.00 0.00 0.00 64 1009.5
20260507162604 65 309 1.7 7.8 0.00 0.00 0.00 64 1009.5
20260507162104 66 222 2.6 7.8 0.00 0.00 0.00 64 1009.5
20260507161603 67 251 2.6 5.2 0.00 0.00 0.00 64 1009.5
20260507161104 67 346 1.7 5.2 0.00 0.00 0.00 64 1009.5
20260507160104 67 95 0.9 7.0 0.00 0.00 0.00 66 1009.5
20260507155604 66 237 0.9 6.1 0.00 0.00 0.00 67 1009.5
20260507155104 67 201 1.7 6.1 0.00 0.00 0.00 65 1009.1
20260507154604 67 291 1.7 5.2 0.00 0.00 0.00 65 1009.5
20260507153604 67 214 1.7 4.3 0.00 0.00 0.00 64 1009.1
20260507152104 67 217 2.6 6.1 0.00 0.00 0.00 64 1009.5
20260507151604 66 243 4.3 6.1 0.00 0.00 0.00 65 1009.5
20260507151104 66 158 2.6 6.1 0.00 0.00 0.00 65 1009.5
20260507150105 66 227 2.6 7.8 0.00 0.00 0.00 65 1009.5
20260507145604 67 306 2.6 6.1 0.00 0.00 0.00 66 1009.5
20260507145103 67 195 1.7 6.1 0.00 0.00 0.00 66 1009.5
20260507144604 67 223 2.6 6.1 0.00 0.00 0.00 65 1009.5
20260507144104 67 223 2.6 6.1 0.00 0.00 0.00 65 1009.5
20260507143604 67 200 2.6 5.2 0.00 0.00 0.00 65 1009.5
20260507143104 67 158 2.6 5.2 0.00 0.00 0.00 65 1009.8